Date,Time,Temp 1,Temp 2
12/8/2013,15:00,5.0755363,4.8988437
12/8/2013,15:01,5.0726584,4.9000749
12/8/2013,15:02,5.064783,4.9022669
12/8/2013,15:03,5.056741,4.9048643
12/8/2013,15:04,5.0526686,4.9064207
12/8/2013,15:05,5.0525951,4.9043188
12/8/2013,15:06,5.0551404,4.8943794
12/8/2013,15:07,5.0587528,4.8916668
12/8/2013,15:08,5.0637013,4.8957057
12/8/2013,15:09,5.0640341,4.9024021
12/8/2013,15:10,5.0357026,4.9037233
12/8/2013,15:11,4.9875211,4.8884135
12/8/2013,15:12,4.9836191,4.8818517
12/8/2013,15:13,4.9758882,4.8826575
12/8/2013,15:14,4.9600538,4.8809207
12/8/2013,15:15,4.9300523,4.8579196
12/8/2013,15:16,4.9538452,4.8623048
12/8/2013,15:17,4.9566557,4.8381344
12/8/2013,15:18,4.9411778,4.7987568
12/8/2013,15:19,4.9858222,4.6830192
12/8/2013,15:20,5.0176587,4.8377339
12/8/2013,15:21,5.0187994,4.929705
12/8/2013,15:22,4.9708158,4.7205326
12/8/2013,15:23,4.9433862,4.6985198
12/8/2013,15:24,4.6334619,4.3890892
12/8/2013,15:25,4.8434135,4.4645369
12/8/2013,15:26,4.8036163,4.5575424
12/8/2013,15:27,4.8717785,4.341349
12/8/2013,15:28,4.7427974,4.3539724
12/8/2013,15:29,4.6196863,4.3320553
12/8/2013,15:30,4.6241573,4.3213692
12/8/2013,15:31,4.6469083,4.3366218
12/8/2013,15:32,4.6993244,4.3638273
12/8/2013,15:33,4.7386616,4.8142456
12/8/2013,15:34,4.7639701,4.8865616
12/8/2013,15:35,4.8064431,4.8899
12/8/2013,15:36,4.8422771,4.8851401
12/8/2013,15:37,4.8717981,4.8900301
12/8/2013,15:38,4.8942246,4.8891192
12/8/2013,15:39,4.9133045,4.8835034
12/8/2013,15:40,4.9301698,4.8895296
12/8/2013,15:41,4.9445026,4.8967217
12/8/2013,15:42,4.9533702,4.9021719
12/8/2013,15:43,4.960661,4.9062656
12/8/2013,15:44,4.9663946,4.9092182
12/8/2013,15:45,4.9702577,4.9065809
12/8/2013,15:46,4.9766031,4.9050245
12/8/2013,15:47,4.9826986,4.903403
12/8/2013,15:48,4.9863314,4.9010708
12/8/2013,15:49,4.9881037,4.9008406
12/8/2013,15:50,4.9811466,4.8989839
12/8/2013,15:51,4.9698758,4.8921172
12/8/2013,15:52,4.9579386,4.8871522
12/8/2013,15:53,4.9555932,4.8871072
12/8/2013,15:54,4.9619291,4.8892744
12/8/2013,15:55,4.9711096,4.895941
12/8/2013,15:56,4.9801037,4.9013761
12/8/2013,15:57,4.9895186,4.9045591
12/8/2013,15:58,4.9979002,4.90563
12/8/2013,15:59,5.0058214,4.9058903
12/8/2013,16:00,5.0149418,4.9031828
12/8/2013,16:01,5.0252563,4.9013311
12/8/2013,16:02,5.0352082,4.9052347
12/8/2013,16:03,5.0439018,4.9091432
12/8/2013,16:04,5.0514155,4.9120057
12/8/2013,16:05,5.0595359,4.9142576
12/8/2013,16:06,5.0657326,4.9148781
12/8/2013,16:07,5.0680967,4.9173202
12/8/2013,16:08,5.0702209,4.9251115
12/8/2013,16:09,5.0748266,4.9302554
12/8/2013,16:10,5.0796672,4.9306657
12/8/2013,16:11,5.0838959,4.9228747
12/8/2013,16:12,5.087459,4.9226645
12/8/2013,16:13,5.0893922,4.9274283
12/8/2013,16:14,5.0871604,4.9186463
12/8/2013,16:15,5.0809985,4.9083875
12/8/2013,16:16,5.0718459,4.9062656
12/8/2013,16:17,5.0639607,4.9063157
12/8/2013,16:18,5.0575927,4.9040636
12/8/2013,16:19,5.0523455,4.9027124
12/8/2013,16:20,5.0501722,4.9037633
12/8/2013,16:21,5.0533147,4.90563
12/8/2013,16:22,5.0611316,4.9028024
12/8/2013,16:23,5.0695357,4.9121308
12/8/2013,16:24,5.0741952,4.9212284
12/8/2013,16:25,5.0758447,4.9141175
12/8/2013,16:26,5.0749294,4.9072615
12/8/2013,16:27,5.0716158,4.9027024
12/8/2013,16:28,5.0679596,4.8999998
12/8/2013,16:29,5.0658256,4.8983983
12/8/2013,16:30,5.0665695,4.8958509
12/8/2013,16:31,5.0699762,4.8967417
12/8/2013,16:32,5.0736862,4.908958
12/8/2013,16:33,5.0762607,4.9190967
12/8/2013,16:34,5.0769606,4.9254568
12/8/2013,16:35,5.0757566,4.9324471
12/8/2013,16:36,5.0734757,4.9303205
12/8/2013,16:37,5.0713222,4.9241908
12/8/2013,16:38,5.0686791,4.9193168
12/8/2013,16:39,5.065899,4.9170299
12/8/2013,16:40,5.0626489,4.9165596
12/8/2013,16:41,5.058136,4.9159741
12/8/2013,16:42,5.0549985,4.9162443
12/8/2013,16:43,5.0526294,4.9164044
12/8/2013,16:44,5.0514253,4.917095
12/8/2013,16:45,5.0511267,4.9176555
12/8/2013,16:46,5.0505736,4.918271
12/8/2013,16:47,5.0489876,4.9213685
12/8/2013,16:48,5.0475583,4.9307358
12/8/2013,16:49,5.0464716,4.9368703
12/8/2013,16:50,5.0466038,4.9360096
12/8/2013,16:51,5.0478961,4.9330175
12/8/2013,16:52,5.0489876,4.9320618
12/8/2013,16:53,5.0497953,4.9328323
12/8/2013,16:54,5.0528888,4.9340732
12/8/2013,16:55,5.058043,4.9289594
12/8/2013,16:56,5.0649886,4.9295299
12/8/2013,16:57,5.069379,4.9264775
12/8/2013,16:58,5.0736079,4.9203477
12/8/2013,16:59,5.0757125,4.9172051
12/8/2013,17:00,5.076202,4.9221541
12/8/2013,17:01,5.0769557,4.929685
12/8/2013,17:02,5.0781157,4.9398724
12/8/2013,17:03,5.0795889,4.9443154
12/8/2013,17:04,5.0809887,4.931036
12/8/2013,17:05,5.0820508,4.9243759
12/8/2013,17:06,5.0819529,4.9221441
12/8/2013,17:07,5.0810768,4.9246661
12/8/2013,17:08,5.0794127,4.9286242
12/8/2013,17:09,5.0772641,4.9308008
12/8/2013,17:10,5.0744889,4.9316665
12/8/2013,17:11,5.0718459,4.9319117
12/8/2013,17:12,5.0683561,4.9312111
12/8/2013,17:13,5.0651403,4.9295249
12/8/2013,17:14,5.0627175,4.9282339
12/8/2013,17:15,5.0607743,4.9271331
12/8/2013,17:16,5.0597366,4.9269379
12/8/2013,17:17,5.0600743,4.9268178
12/8/2013,17:18,5.062091,4.9264325
12/8/2013,17:19,5.0646509,4.9256069
12/8/2013,17:20,5.0671324,4.9260973
12/8/2013,17:21,5.0681848,4.9272882
12/8/2013,17:22,5.0682582,4.9267227
12/8/2013,17:23,5.0679939,4.925737
12/8/2013,17:24,5.069007,4.9272081
12/8/2013,17:25,5.0706908,4.9294248
12/8/2013,17:26,5.0711802,4.9302554
12/8/2013,17:27,5.0716697,4.9314964
12/8/2013,17:28,5.0718948,4.9325671
12/8/2013,17:29,5.0719144,4.9339381
12/8/2013,17:30,5.0722032,4.9356044
12/8/2013,17:31,5.0722521,4.9368903
12/8/2013,17:32,5.0722619,4.9376058
12/8/2013,17:33,5.0716354,4.9371354
12/8/2013,17:34,5.0707642,4.9355043
12/8/2013,17:35,5.070402,4.933703
12/8/2013,17:36,5.070867,4.9322569
12/8/2013,17:37,5.0716697,4.931066
12/8/2013,17:38,5.0733044,4.9305456
12/8/2013,17:39,5.0744204,4.9306057
12/8/2013,17:40,5.0753748,4.9312011
12/8/2013,17:41,5.0757517,4.9308609
12/8/2013,17:42,5.0751154,4.9294498
12/8/2013,17:43,5.0739554,4.9289945
12/8/2013,17:44,5.0721983,4.9304256
12/8/2013,17:45,5.0709208,4.9303855
12/8/2013,17:46,5.0711068,4.9302704
12/8/2013,17:47,5.0727465,4.9317616
12/8/2013,17:48,5.07467,4.9340182
12/8/2013,17:49,5.0773962,4.93651
12/8/2013,17:50,5.0804112,4.937926
12/8/2013,17:51,5.0816152,4.9383813
12/8/2013,17:52,5.0787324,4.9382712
12/8/2013,17:53,5.0726779,4.9378359
12/8/2013,17:54,5.0686791,4.9369653
12/8/2013,17:55,5.0654976,4.9360547
12/8/2013,17:56,5.0634223,4.9356594
12/8/2013,17:57,5.0610435,4.9356644
12/8/2013,17:58,5.059717,4.9363199
12/8/2013,17:59,5.0573039,4.9366901
12/8/2013,18:00,5.0561634,4.9376058
12/8/2013,18:01,5.0550328,4.9387666
12/8/2013,18:02,5.0538237,4.9392019
12/8/2013,18:03,5.0535839,4.9387366
12/8/2013,18:04,5.0540832,4.9375357
12/8/2013,18:05,5.055067,4.9349839
12/8/2013,18:06,5.0585178,4.9336129
12/8/2013,18:07,5.0625706,4.9322219
12/8/2013,18:08,5.0674065,4.9315814
12/8/2013,18:09,5.071606,4.9329024
12/8/2013,18:10,5.0737449,4.9413384
12/8/2013,18:11,5.0749245,4.9439801
12/8/2013,18:12,5.0754091,4.9442503
12/8/2013,18:13,5.0746259,4.9472173
12/8/2013,18:14,5.0718361,4.9503642
12/8/2013,18:15,5.068547,4.9517551
12/8/2013,18:16,5.0652774,4.9491085
12/8/2013,18:17,5.0630552,4.9465668
12/8/2013,18:18,5.0621301,4.9451859
12/8/2013,18:19,5.0620567,4.9446506
12/8/2013,18:20,5.0636377,4.9447707
12/8/2013,18:21,5.0660801,4.945281
12/8/2013,18:22,5.0679988,4.9461816
12/8/2013,18:23,5.0689532,4.9464668
12/8/2013,18:24,5.0666087,4.9446506
12/8/2013,18:25,5.066315,4.9446406
12/8/2013,18:26,5.0648271,4.9432246
12/8/2013,18:27,5.0648907,4.9410932
12/8/2013,18:28,5.0663248,4.9397022
12/8/2013,18:29,5.0691343,4.9394521
12/8/2013,18:30,5.0718948,4.9388667
12/8/2013,18:31,5.0743861,4.9369353
12/8/2013,18:32,5.0763831,4.9473673
12/8/2013,18:33,5.0776409,4.951645
12/8/2013,18:34,5.0787373,4.9527507
12/8/2013,18:35,5.079354,4.9579938
12/8/2013,18:36,5.0798043,4.9503793
12/8/2013,18:37,5.0799609,4.9448607
12/8/2013,18:38,5.0795204,4.9404678
12/8/2013,18:39,5.0792757,4.9414684
12/8/2013,18:40,5.0787911,4.9401776
12/8/2013,18:41,5.0781157,4.940798
12/8/2013,18:42,5.0769459,4.9443354
12/8/2013,18:43,5.076246,4.945301
12/8/2013,18:44,5.0750028,4.9428544
12/8/2013,18:45,5.0748266,4.9403027
12/8/2013,18:46,5.0754629,4.9385664
12/8/2013,18:47,5.0749735,4.9415835
12/8/2013,18:48,5.0745281,4.9454061
12/8/2013,18:49,5.0731233,4.9487983
12/8/2013,18:50,5.0719242,4.9502242
12/8/2013,18:51,5.0707495,4.9504593
12/8/2013,18:52,5.069937,4.9502942
12/8/2013,18:53,5.0698195,4.9503492
12/8/2013,18:54,5.071513,4.9496288
12/8/2013,18:55,5.0733191,4.9489484
12/8/2013,18:56,5.0733632,4.9471372
12/8/2013,18:57,5.0722228,4.9457313
12/8/2013,18:58,5.0702943,4.9447256
12/8/2013,18:59,5.0694524,4.9442403
12/8/2013,19:00,5.0700838,4.9439101
12/8/2013,19:01,5.07096,4.9432446
12/8/2013,19:02,5.0722913,4.9421889
12/8/2013,19:03,5.0737058,4.9395221
12/8/2013,19:04,5.0755559,4.9383163
12/8/2013,19:05,5.0768529,4.9377859
12/8/2013,19:06,5.0779591,4.9375457
12/8/2013,19:07,5.0779493,4.9381412
12/8/2013,19:08,5.0769117,4.9407129
12/8/2013,19:09,5.0760258,4.9430095
12/8/2013,19:10,5.0749539,4.943715
12/8/2013,19:11,5.0740092,4.9433097
12/8/2013,19:12,5.072673,4.9413183
12/8/2013,19:13,5.072027,4.9425642
12/8/2013,19:14,5.0699517,4.9439951
12/8/2013,19:15,5.0674555,4.945341
12/8/2013,19:16,5.0639069,4.946762
12/8/2013,19:17,5.0611659,4.9481278
12/8/2013,19:18,5.0591639,4.9490834
12/8/2013,19:19,5.0585961,4.950014
12/8/2013,19:20,5.0596779,4.9509546
12/8/2013,19:21,5.0614889,4.9529208
12/8/2013,19:22,5.0633782,4.9570083
12/8/2013,19:23,5.0647536,4.961786
12/8/2013,19:24,5.0663493,4.9666886
12/8/2013,19:25,5.0669122,4.9708657
12/8/2013,19:26,5.0685616,4.9672189
12/8/2013,19:27,5.070446,4.961851
12/8/2013,19:28,5.0724136,4.9686696
12/8/2013,19:29,5.0725507,4.9663134
12/8/2013,19:30,5.0721983,4.9552322
12/8/2013,19:31,5.0722472,4.9478026
12/8/2013,19:32,5.0726388,4.9435048
12/8/2013,19:33,5.0736568,4.9405078
12/8/2013,19:34,5.0747385,4.942279
12/8/2013,19:35,5.075086,4.9482629
12/8/2013,19:36,5.0742931,4.9541816
12/8/2013,19:37,5.0723304,4.9560977
12/8/2013,19:38,5.0694182,4.9517951
12/8/2013,19:39,5.06655,4.9475925
12/8/2013,19:40,5.0641271,4.9473123
12/8/2013,19:41,5.0622574,4.9484781
12/8/2013,19:42,5.0607253,4.9498589
12/8/2013,19:43,5.0600548,4.9509896
12/8/2013,19:44,5.0599128,4.9521804
12/8/2013,19:45,5.060789,4.9529458
12/8/2013,19:46,5.061719,4.9534261
12/8/2013,19:47,5.0623895,4.953206
12/8/2013,19:48,5.0629867,4.9517101
12/8/2013,19:49,5.0649494,4.9480378
12/8/2013,19:50,5.0673184,4.9461566
12/8/2013,19:51,5.0693741,4.9461766
12/8/2013,19:52,5.0700643,4.9448007
12/8/2013,19:53,5.0695014,4.9426242
12/8/2013,19:54,5.0676415,4.9461916
12/8/2013,19:55,5.0656004,4.9473523
12/8/2013,19:56,5.0645383,4.9430845
12/8/2013,19:57,5.0645628,4.9377959
12/8/2013,19:58,5.0642446,4.9355043
12/8/2013,19:59,5.0626049,4.935104
12/8/2013,20:00,5.0604512,4.9355343
12/8/2013,20:01,5.0583367,4.9370754
12/8/2013,20:02,5.0562711,4.9389867
12/8/2013,20:03,5.0548223,4.9405328
12/8/2013,20:04,5.0531531,4.9419488
12/8/2013,20:05,5.0512148,4.9439401
12/8/2013,20:06,5.0492128,4.9460515
12/8/2013,20:07,5.0467409,4.946817
12/8/2013,20:08,5.0442249,4.9469871
12/8/2013,20:09,5.0426144,4.946897
12/8/2013,20:10,5.0414543,4.9462266
12/8/2013,20:11,5.0411263,4.9455462
12/8/2013,20:12,5.0415326,4.9441352
12/8/2013,20:13,5.0422865,4.9421889
12/8/2013,20:14,5.0434466,4.9399174
12/8/2013,20:15,5.045243,4.9382162
12/8/2013,20:16,5.046922,4.9376658
12/8/2013,20:17,5.0484247,4.93645
12/8/2013,20:18,5.0491785,4.9389717
12/8/2013,20:19,5.0492471,4.9456913
12/8/2013,20:20,5.0489093,4.9487833
12/8/2013,20:21,5.0483464,4.9501741
12/8/2013,20:22,5.0477639,4.9521904
12/8/2013,20:23,5.0473772,4.9539765
12/8/2013,20:24,5.0471765,4.954912
12/8/2013,20:25,5.0469171,4.9551522
12/8/2013,20:26,5.0469905,4.9549621
12/8/2013,20:27,5.0469709,4.9544618
12/8/2013,20:28,5.0470492,4.9535862
12/8/2013,20:29,5.0467751,4.9522604
12/8/2013,20:30,5.0458843,4.9503142
12/8/2013,20:31,5.0442934,4.9482179
12/8/2013,20:32,5.042634,4.9478377
12/8/2013,20:33,5.0419928,4.9495437
12/8/2013,20:34,5.0420074,4.9473223
12/8/2013,20:35,5.0426976,4.9428344
12/8/2013,20:36,5.0427564,4.9386065
12/8/2013,20:37,5.042448,4.9378159
12/8/2013,20:38,5.04189,4.9412983
12/8/2013,20:39,5.0412487,4.935139
12/8/2013,20:40,5.0402746,4.9286192
12/8/2013,20:41,5.0382725,4.9249664
12/8/2013,20:42,5.0349781,4.925777
12/8/2013,20:43,5.0303816,4.9274883
12/8/2013,20:44,5.0258584,4.9287843
12/8/2013,20:45,5.0225492,4.9293898
12/8/2013,20:46,5.0203365,4.9292647
12/8/2013,20:47,5.0190784,4.928379
12/8/2013,20:48,5.0185252,4.9275133
12/8/2013,20:49,5.0184224,4.9271331
12/8/2013,20:50,5.0186476,4.9268228
12/8/2013,20:51,5.0187749,4.9263374
12/8/2013,20:52,5.0189756,4.9262173
12/8/2013,20:53,5.0194309,4.9261073
12/8/2013,20:54,5.0195679,4.9263424
12/8/2013,20:55,5.0208799,4.9261873
12/8/2013,20:56,5.0224758,4.9261973
12/8/2013,20:57,5.0253346,4.9258521
12/8/2013,20:58,5.0280955,4.9255969
12/8/2013,20:59,5.0307194,4.9263174
12/8/2013,21:00,5.0329222,4.9282489
12/8/2013,21:01,5.0341607,4.9308459
12/8/2013,21:02,5.0347432,4.9330325
12/8/2013,21:03,5.0346795,4.9349589
12/8/2013,21:04,5.033818,4.9382362
12/8/2013,21:05,5.0327558,4.942269
12/8/2013,21:06,5.0317033,4.9424191
12/8/2013,21:07,5.0307292,4.939317
12/8/2013,21:08,5.0300585,4.9353492
12/8/2013,21:09,5.029897,4.9322569
12/8/2013,21:10,5.0299361,4.9300503
12/8/2013,21:11,5.0294858,4.9288444
12/8/2013,21:12,5.0278704,4.9292397
12/8/2013,21:13,5.0252759,4.9318716
12/8/2013,21:14,5.02181,4.9358695
12/8/2013,21:15,5.0183294,4.9390668
12/8/2013,21:16,5.0153921,4.9406179
12/8/2013,21:17,5.0133165,4.9398223
12/8/2013,21:18,5.0125822,4.9377159
12/8/2013,21:19,5.0136004,4.9340582
12/8/2013,21:20,5.0147215,4.9286292
12/8/2013,21:21,5.0141732,4.9251215
12/8/2013,21:22,5.0121416,4.9249864
12/8/2013,21:23,5.01081,4.9255118
12/8/2013,21:24,5.009968,4.9263074
12/8/2013,21:25,5.009826,4.927103
12/8/2013,21:26,5.0095176,4.9275784
12/8/2013,21:27,5.0093854,4.9282739
12/8/2013,21:28,5.0091406,4.9267928
12/8/2013,21:29,5.0087098,4.9248613
12/8/2013,21:30,5.0085434,4.9227997
12/8/2013,21:31,5.0091063,4.9208881
12/8/2013,21:32,5.0094099,4.9184311
12/8/2013,21:33,5.0093854,4.9160541
12/8/2013,21:34,5.0094148,4.9149282
12/8/2013,21:35,5.0095029,4.9141575
12/8/2013,21:36,5.0098798,4.9141125
12/8/2013,21:37,5.0102323,4.9143627
12/8/2013,21:38,5.0109764,4.914698
12/8/2013,21:39,5.0113485,4.9152284
12/8/2013,21:40,5.0111723,4.9160391
12/8/2013,21:41,5.0118136,4.9160591
12/8/2013,21:42,5.0125087,4.917095
12/8/2013,21:43,5.0119702,4.9188014
12/8/2013,21:44,5.0095518,4.9188915
12/8/2013,21:45,5.0056843,4.9198273
12/8/2013,21:46,5.0016161,4.9211984
12/8/2013,21:47,4.9978268,4.9223293
12/8/2013,21:48,4.994106,4.9233251
12/8/2013,21:49,4.9914329,4.9238255
12/8/2013,21:50,4.9896949,4.9241057
12/8/2013,21:51,4.9888136,4.9241457
12/8/2013,21:52,4.9884807,4.9243209
12/8/2013,21:53,4.9888283,4.924541
12/8/2013,21:54,4.9894697,4.9248963
12/8/2013,21:55,4.9903999,4.9249413
12/8/2013,21:56,4.9909923,4.9249864
12/8/2013,21:57,4.9915896,4.9250464
12/8/2013,21:58,4.9921281,4.9249714
12/8/2013,21:59,4.9929506,4.9250614
12/8/2013,22:00,4.9938123,4.9249163
12/8/2013,22:01,4.9949236,4.9236103
12/8/2013,22:02,4.9959419,4.9206479
12/8/2013,22:03,4.9969749,4.9171901
12/8/2013,22:04,4.997866,4.9142676
12/8/2013,22:05,4.9984779,4.9117304
12/8/2013,22:06,4.9991829,4.9094284
12/8/2013,22:07,4.9997998,4.9074767
12/8/2013,22:08,5.0002404,4.9070613
12/8/2013,22:09,5.0003285,4.9077569
12/8/2013,22:10,4.9997949,4.9080072
12/8/2013,22:11,4.9985514,4.9073816
12/8/2013,22:12,4.9970533,4.9058002
12/8/2013,22:13,4.9957167,4.9041437
12/8/2013,22:14,4.9948159,4.9033079
12/8/2013,22:15,4.9946739,4.9032879
12/8/2013,22:16,4.9955503,4.9031177
12/8/2013,22:17,4.9961427,4.9028925
12/8/2013,22:18,4.9962455,4.9029175
12/8/2013,22:19,4.9955699,4.9024521
12/8/2013,22:20,4.994669,4.9008106
12/8/2013,22:21,4.9938172,4.899144
12/8/2013,22:22,4.9931758,4.8974874
12/8/2013,22:23,4.9928429,4.8966366
12/8/2013,22:24,4.9928037,4.896016
12/8/2013,22:25,4.9932248,4.8954355
12/8/2013,22:26,4.993543,4.8950201
12/8/2013,22:27,4.9935577,4.8963063
12/8/2013,22:28,4.9934549,4.9009007
12/8/2013,22:29,4.9937144,4.9063157
12/8/2013,22:30,4.9936213,4.9117254
12/8/2013,22:31,4.993073,4.9134619
12/8/2013,22:32,4.9923093,4.9120357
12/8/2013,22:33,4.9916581,4.9102291
12/8/2013,22:34,4.9911734,4.9091482
12/8/2013,22:35,4.9908895,4.9085126
12/8/2013,22:36,4.9907818,4.9081323
12/8/2013,22:37,4.9906398,4.9086978
12/8/2013,22:38,4.9904831,4.9097187
12/8/2013,22:39,4.9901061,4.9114952
12/8/2013,22:40,4.9896753,4.9132417
12/8/2013,22:41,4.9889605,4.914713
12/8/2013,22:42,4.9881625,4.9155837
12/8/2013,22:43,4.9873742,4.9164144
12/8/2013,22:44,4.9864293,4.917065
12/8/2013,22:45,4.9856117,4.9175003
12/8/2013,22:46,4.9851613,4.9178656
12/8/2013,22:47,4.9851613,4.9179457
12/8/2013,22:48,4.9857537,4.9180958
12/8/2013,22:49,4.9868112,4.9181259
12/8/2013,22:50,4.9876484,4.9177956
12/8/2013,22:51,4.9881723,4.9172701
12/8/2013,22:52,4.9882996,4.9176304
12/8/2013,22:53,4.9881086,4.9180158
12/8/2013,22:54,4.9881527,4.9172451
12/8/2013,22:55,4.9882947,4.9156188
12/8/2013,22:56,4.988515,4.9140474
12/8/2013,22:57,4.9886227,4.9127713
12/8/2013,22:58,4.9881674,4.9116253
12/8/2013,22:59,4.9871931,4.9110498
12/8/2013,23:00,4.9861796,4.9111599
12/8/2013,23:01,4.9848675,4.9113651
12/8/2013,23:02,4.9835799,4.9110098
12/8/2013,23:03,4.982444,4.9102041
12/8/2013,23:04,4.9817047,4.9092733
12/8/2013,23:05,4.9813669,4.9083775
12/8/2013,23:06,4.9813963,4.9081923
12/8/2013,23:07,4.9821699,4.9107646
12/8/2013,23:08,4.9838247,4.9153035
12/8/2013,23:09,4.9858027,4.9195971
12/8/2013,23:10,4.9877414,4.9244209
12/8/2013,23:11,4.9893473,4.9268178
12/8/2013,23:12,4.9901551,4.9275984
12/8/2013,23:13,4.9903607,4.9292747
12/8/2013,23:14,4.9902971,4.9298501
12/8/2013,23:15,4.9901502,4.9288444
12/8/2013,23:16,4.9901012,4.9272181
12/8/2013,23:17,4.9902432,4.9260822
12/8/2013,23:18,4.9904684,4.9252666
12/8/2013,23:19,4.9907132,4.9254017
12/8/2013,23:20,4.9909384,4.925712
12/8/2013,23:21,4.9911392,4.9265176
12/8/2013,23:22,4.9911734,4.9278986
12/8/2013,23:23,4.9914133,4.9291646
12/8/2013,23:24,4.9915112,4.9305306
12/8/2013,23:25,4.9916434,4.9315864
12/8/2013,23:26,4.9918784,4.932402
12/8/2013,23:27,4.9921722,4.9329825
12/8/2013,23:28,4.9924463,4.9334478
12/8/2013,23:29,4.9929359,4.9339582
12/8/2013,23:30,4.9933766,4.9341983
12/8/2013,23:31,4.9938514,4.9347587
12/8/2013,23:32,4.9942284,4.9376158
12/8/2013,23:33,4.9944536,4.9409731
12/8/2013,23:34,4.9946592,4.9412683
12/8/2013,23:35,4.9949628,4.937956
12/8/2013,23:36,4.9953447,4.9346036
12/8/2013,23:37,4.995565,4.9327022
12/8/2013,23:38,4.9955062,4.9308559
12/8/2013,23:39,4.9953887,4.9264075
12/8/2013,23:40,4.9952565,4.9223693
12/8/2013,23:41,4.9949775,4.920723
12/8/2013,23:42,4.9947865,4.9204678
12/8/2013,23:43,4.9943263,4.9209282
12/8/2013,23:44,4.9939396,4.9221641
12/8/2013,23:45,4.9934451,4.9234702
12/8/2013,23:46,4.9928135,4.9246661
12/8/2013,23:47,4.9921281,4.9258421
12/8/2013,23:48,4.9911783,4.9267828
12/8/2013,23:49,4.9900131,4.9276284
12/8/2013,23:50,4.9887304,4.9285391
12/8/2013,23:51,4.9872665,4.9292196
12/8/2013,23:52,4.9859348,4.9300152
12/8/2013,23:53,4.9847255,4.9307708
12/8/2013,23:54,4.9839275,4.9313663
12/8/2013,23:55,4.9833302,4.9319117
12/8/2013,23:56,4.9829875,4.932387
12/8/2013,23:57,4.9828896,4.9326972
12/8/2013,23:58,4.9830022,4.9329724
12/8/2013,23:59,4.9834036,4.9333027
12/9/2013,0:00,4.9842947,4.9332276
12/9/2013,0:01,4.9853963,4.9329124
12/9/2013,0:02,4.9869581,4.9320017
12/9/2013,0:03,4.988324,4.9314513
12/9/2013,0:04,4.9894648,4.935139
12/9/2013,0:05,4.9900131,4.9396472
12/9/2013,0:06,4.9899691,4.9399974
12/9/2013,0:07,4.9898124,4.9375958
12/9/2013,0:08,4.9894648,4.9348338
12/9/2013,0:09,4.9893718,4.9329624
12/9/2013,0:10,4.9892396,4.9316014
12/9/2013,0:11,4.9889801,4.9306307
12/9/2013,0:12,4.9885297,4.9300253
12/9/2013,0:13,4.9878834,4.929635
12/9/2013,0:14,4.9873644,4.92964
12/9/2013,0:15,4.9869483,4.9296199
12/9/2013,0:16,4.9868504,4.92968
12/9/2013,0:17,4.986914,4.929645
12/9/2013,0:18,4.9873155,4.9293798
12/9/2013,0:19,4.9878589,4.9284991
12/9/2013,0:20,4.9886325,4.9275534
12/9/2013,0:21,4.9892738,4.9288544
12/9/2013,0:22,4.9897438,4.932352
12/9/2013,0:23,4.9901502,4.9366051
12/9/2013,0:24,4.9902677,4.9407079
12/9/2013,0:25,4.9903069,4.9445255
12/9/2013,0:26,4.9901943,4.9471822
12/9/2013,0:27,4.9900327,4.9486332
12/9/2013,0:28,4.9896753,4.9491035
12/9/2013,0:29,4.9892053,4.948403
12/9/2013,0:30,4.9886374,4.9471172
12/9/2013,0:31,4.9879617,4.9455061
12/9/2013,0:32,4.9873693,4.9439201
12/9/2013,0:33,4.9868749,4.9424091
12/9/2013,0:34,4.9866545,4.940883
12/9/2013,0:35,4.986586,4.9398073
12/9/2013,0:36,4.9865028,4.9386515
12/9/2013,0:37,4.9866007,4.9376608
12/9/2013,0:38,4.9867231,4.9368552
12/9/2013,0:39,4.9867378,4.9363349
12/9/2013,0:40,4.9866007,4.9359796
12/9/2013,0:41,4.9864146,4.9357695
12/9/2013,0:42,4.9861601,4.9357094
12/9/2013,0:43,4.9858614,4.9352391
12/9/2013,0:44,4.9855725,4.9345236
12/9/2013,0:45,4.9853571,4.9338731
12/9/2013,0:46,4.9854061,4.9328674
12/9/2013,0:47,4.9857439,4.9316214
12/9/2013,0:48,4.9866545,4.9311861
12/9/2013,0:49,4.9875407,4.9327723
12/9/2013,0:50,4.9880156,4.9333877
12/9/2013,0:51,4.9880205,4.9324771
12/9/2013,0:52,4.9878051,4.9314163
12/9/2013,0:53,4.987668,4.9305006
12/9/2013,0:54,4.9876141,4.9299802
12/9/2013,0:55,4.9876141,4.9294398
12/9/2013,0:56,4.9878051,4.9290245
12/9/2013,0:57,4.9879128,4.9285942
12/9/2013,0:58,4.9882506,4.928344
12/9/2013,0:59,4.9884807,4.9279137
12/9/2013,1:00,4.9889507,4.9277886
12/9/2013,1:01,4.9894746,4.9274383
12/9/2013,1:02,4.9899495,4.9276334
12/9/2013,1:03,4.9902677,4.9293147
12/9/2013,1:04,4.9903754,4.9327823
12/9/2013,1:05,4.9906398,4.9353141
12/9/2013,1:06,4.9907867,4.9347738
12/9/2013,1:07,4.9911245,4.9319767
12/9/2013,1:08,4.9914182,4.9290545
12/9/2013,1:09,4.9912714,4.9274283
12/9/2013,1:10,4.9900621,4.9260622
12/9/2013,1:11,4.9881967,4.9247312
12/9/2013,1:12,4.9863314,4.9235202
12/9/2013,1:13,4.9847011,4.9228047
12/9/2013,1:14,4.9834183,4.9221591
12/9/2013,1:15,4.9823804,4.9212985
12/9/2013,1:16,4.9814795,4.9206379
12/9/2013,1:17,4.9805982,4.9201825
12/9/2013,1:18,4.9801233,4.9197572
12/9/2013,1:19,4.9796582,4.9196221
12/9/2013,1:20,4.9794673,4.9196671
12/9/2013,1:21,4.9793742,4.9197222
12/9/2013,1:22,4.9791539,4.9196521
12/9/2013,1:23,4.9789679,4.9197722
12/9/2013,1:24,4.9788748,4.9203327
12/9/2013,1:25,4.9788504,4.920698
12/9/2013,1:26,4.9788455,4.9203627
12/9/2013,1:27,4.9790511,4.9202276
12/9/2013,1:28,4.9795897,4.9209932
12/9/2013,1:29,4.9803143,4.9226445
12/9/2013,1:30,4.9812788,4.9235452
12/9/2013,1:31,4.9823167,4.9237304
12/9/2013,1:32,4.9833743,4.9241407
12/9/2013,1:33,4.9841723,4.9251515
12/9/2013,1:34,4.9846472,4.9265726
12/9/2013,1:35,4.9846472,4.9279687
12/9/2013,1:36,4.9843975,4.9288844
12/9/2013,1:37,4.9840597,4.9292997
12/9/2013,1:38,4.9837268,4.92964
12/9/2013,1:39,4.9835211,4.929715
12/9/2013,1:40,4.9833351,4.929625
12/9/2013,1:41,4.9833302,4.929715
12/9/2013,1:42,4.9833987,4.9298001
12/9/2013,1:43,4.9835016,4.9299502
12/9/2013,1:44,4.9838198,4.9300853
12/9/2013,1:45,4.9843241,4.9305356
12/9/2013,1:46,4.9852396,4.9305106
12/9/2013,1:47,4.986493,4.9305757
12/9/2013,1:48,4.9879911,4.9306057
12/9/2013,1:49,4.9891857,4.9305857
12/9/2013,1:50,4.9899201,4.9327973
12/9/2013,1:51,4.9902628,4.9361097
12/9/2013,1:52,4.9902677,4.9368903
12/9/2013,1:53,4.9901698,4.9340132